Home   Weather   Québec   Past weeks

Flag for Canada Past Weather in Québec, Quebec, Canada — Yesterday and Last 2 Weeks

Now
27 °F

Sleet. Mostly cloudy.


Feels Like: 10 °F
Forecast: N/A
Wind: 30 mph from East

Location: Quebec Weather Station

Current Time: Jan 24, 2017 at 6:32:17 pm

Latest Report: Jan 24, 2017 at 6:00 pm


Visibility: 8 mi

Pressure: 29.70 "Hg

Humidity: 86%

Dew Point: 23 °F

Location of QuébecLocation

Past Weather in Québec — Graph

°F

Québec Temperature Yesterday

Maximum temperature yesterday: 27 °F (at 12:00 am)
Minimum temperature yesterday: 25 °F (at 4:00 am)
Average temperature yesterday: 25 °F

High & Low Weather Summary for the Past Weeks

 TemperatureHumidityPressure
High41 °F (Jan 11, 7:39 am)100% (Jan 11, 1:00 am)30.74 "Hg (Jan 11, 1:00 am)
Low-8 °F (Jan 14, 6:00 am)43% (Jan 24, 11:00 am)29.66 "Hg (Jan 11, 7:39 am)
Average22 °F77%30.11 "Hg
* Reported Jan 9 5:00 pm — Jan 24 5:15 pm, Québec, Weather by CustomWeather, © 2017

Note: Actual official high and low records may vary slightly from our data, if they occured in-between our weather recording intervals... More about our weather records

Advertising

Québec Weather History for the Previous 24 Hours

Scroll right to see more
 ConditionsComfort  
Time TempWeatherWind HumidityBarometerVisibility
5:15 pm
Tue, Jan 24
27 °FSleet. Mostly cloudy.21 mph80%29.72 "Hg8 mi
4:42 pm27 °FSleet. Ice fog.25 mph80%29.72 "Hg3 mi
4:00 pm27 °FSleet. Mostly cloudy.26 mph80%29.73 "Hg6 mi
3:00 pm27 °FSleet. Mostly cloudy.25 mph80%29.77 "Hg5 mi
2:15 pm25 °FSleet. Mostly cloudy.22 mph86%29.79 "Hg4 mi
2:00 pm27 °FSleet. Mostly cloudy.22 mph74%29.80 "Hg3 mi
1:00 pm25 °FSleet. More clouds than sun.28 mph74%29.84 "Hg3 mi
12:44 pm27 °FSleet. More clouds than sun.28 mph64%29.84 "Hg2 mi
12:00 pm28 °FLight mixture of precip. Overcast.22 mph43%29.88 "Hg20 mi
11:00 am28 °FLight mixture of precip. Overcast.24 mph43%29.90 "Hg20 mi
10:00 am28 °FMore clouds than sun.22 mph47%29.94 "Hg20 mi
9:00 am28 °FOvercast.22 mph47%29.95 "Hg20 mi
8:00 am27 °FOvercast.22 mph50%29.98 "Hg20 mi
7:00 am27 °FOvercast.20 mph50%29.97 "Hg15 mi
6:00 am27 °FOvercast.16 mph59%29.99 "Hg15 mi
5:00 am27 °FOvercast.21 mph64%30.02 "Hg15 mi
4:00 am25 °FOvercast.18 mph69%30.05 "Hg15 mi
3:00 am25 °FPassing clouds.15 mph69%30.08 "Hg15 mi
2:00 am25 °FPassing clouds.17 mph69%30.09 "Hg15 mi
1:00 am25 °FPassing clouds.15 mph69%30.09 "Hg15 mi
12:00 am25 °FPassing clouds.14 mph69%30.11 "Hg15 mi
11:00 pm
Mon, Jan 23
25 °FOvercast.14 mph74%30.14 "Hg15 mi
10:00 pm25 °FOvercast.13 mph80%30.14 "Hg15 mi
9:00 pm25 °FPassing clouds.13 mph74%30.15 "Hg15 mi
8:00 pm25 °FPassing clouds.16 mph80%30.14 "Hg15 mi
7:00 pm25 °FMostly cloudy.15 mph80%30.15 "Hg15 mi
6:00 pm25 °FOvercast.14 mph80%30.16 "Hg15 mi
Weather by CustomWeather, © 2017

See weather overviewHow to use our weather pages